Погода в Колхозной Ахтубе

Россия / Волгоградская область     48°42′51″N   44°47′49″E
темп.,
°C
ветер,
м/с
пор.,
м/с
влажн.,
%
обл.,
%
осадки,
мм/ч
давл.,
гПа
погр.,
м
22 апреля, чт
чт2200:00+12юз256721 0.0 1020137
03:00+11з356793 0.0 1021136
06:00+11з2364100 0.0 1022103
09:00+15з2348100 0.0 1023660
12:00+18юз333836 0.0 10231885
15:00+18з333711 0.0 10221912
18:00+18зсз1240100 0.0 10221097
21:00+15св2247100 0.0 102384
23 апреля, пт
пт2300:00+14св245329 0.0 102299
03:00+13св3661100 0.0 1021175
06:00+13зюз0167100 0.0 1021101
09:00+14юз1161100 0.1 1021575
12:00+16з545598 0.4 10201177
15:00+16ююз334962 0.6 10191332
18:00+16зсз575289 0.2 10181220
21:00+14з36635 0.3 1018409
24 апреля, сб
сб2400:00+12з25715 0.0 1017207
03:00+11з3971100 0.0 1016312
06:00+12зюз41064100 0.0 1016419
09:00+15зюз6105098 0.0 10161045
12:00+18зюз7103617 0.2 10152376
15:00+17зюз91148100 0.3 10141825
18:00+14з7116039 0.4 10161238
21:00+12зюз48632 0.4 1017783
25 апреля, вс
вс2500:00+10зюз49675 0.0 1017513
03:00+9з496346 0.0 1018494
06:00+7зсз5864100 0.0 1020606
09:00+10зсз453910 0.0 10211296
12:00+13зсз3427100 0.0 10211749
15:00+13з2225100 0.0 10201988
18:00+12зюз1131100 0.0 1020836
21:00+11в2234100 0.0 1020538
26 апреля, пн
пн2600:00+10вюв2240100 0.0 1020267
03:00+10юв2345100 0.0 1019422
06:00+9ююв2355100 0.0 1019499
09:00+10юв2349100 0.0 10181054
12:00+9ююв2263100 0.0 1018920
15:00+9ю2268100 0.1 1017636
18:00+8ююз2372100 0.0 1016500
21:00+7ююз3580100 0.0 1016234